sat.trackr.live / text

‹ back to catalog

STARLINK-30794

NORAD 58218 · 2023-170N

PAYLOAD ACTIVE UNKNOWN

§ Identity

Operator
Country
US
Launch date
2023-11-03
Launch site
AFETR
Launch vehicle
Mass (kg)
RCS (m²)

Purposes: comms

External: N2YO · Heavens-Above · Gunter

§ Orbital elements

Epoch: 2026-09-20T11:35:34.232640Z

Period
94.27 min
Inclination
43.0107°
Eccentricity
0.0002671
Mean motion
15.27586289 rev/d
Perigee alt
481.2 km
Apogee alt
484.9 km
Semi-major
6,861.2 km
B*
3.4121e-5
RAAN
173.8566°
Arg perigee
247.1260°
Mean anomaly
112.9310°
Rev number
16,009

§ Raw data

STARLINK-307941 58218U 23170N   26263.48303510  .00000676  00000+0  34121-4 0  99932 58218  43.0107 173.8566 0002671 247.1260 112.9310 15.27586289160091

JSON: /api/v1/satellites/58218 · /tle

For live sub-satellite position, see the globe view (requires WebGL).

§ Visibility from observer

Set your observer location to see the next 7 days of passes ≥ 10°. The values pass through the URL so the page stays shareable.

No JS? Fill the form by hand. The geolocation button needs JavaScript.